Time,TemperatureF,DewpointF,PressureIn,WindDirection,WindDirectionDegrees,WindSpeedMPH,WindSpeedGustMPH,Humidity,HourlyPrecipIn,Conditions,Clouds,dailyrainin,SoftwareType,DateUTC
2013-05-20 00:03:00,52.0,50.0,30.25,SE,141,0.0,2.0,94,-99.99,,,-99.99,,2013-05-20 04:03:00,
2013-05-20 00:13:00,52.0,50.0,30.24,SE,142,2.0,4.0,94,-99.99,,,-99.99,,2013-05-20 04:13:00,
2013-05-20 00:23:00,52.0,50.0,30.24,SE,142,2.0,4.0,94,-99.99,,,-99.99,,2013-05-20 04:23:00,
2013-05-20 00:33:00,52.0,50.0,30.22,SE,142,1.0,3.0,94,-99.99,,,-99.99,,2013-05-20 04:33:00,
2013-05-20 00:42:00,52.0,50.0,30.22,SE,142,1.0,3.0,94,-99.99,,,-99.99,,2013-05-20 04:42:00,
2013-05-20 00:53:00,52.0,51.0,30.22,SE,142,2.0,3.0,95,-99.99,,,-99.99,,2013-05-20 04:53:00,
2013-05-20 01:02:00,52.0,51.0,30.21,SE,142,2.0,4.0,95,-99.99,,,-99.99,,2013-05-20 05:02:00,
2013-05-20 01:12:00,52.0,51.0,30.19,SE,140,1.0,5.0,95,-99.99,,,-99.99,,2013-05-20 05:12:00,
2013-05-20 01:22:00,52.0,51.0,30.19,SE,140,1.0,5.0,95,-99.99,,,-99.99,,2013-05-20 05:22:00,
2013-05-20 01:32:00,52.0,51.0,30.19,SE,138,0.0,4.0,95,-99.99,,,-99.99,,2013-05-20 05:32:00,
2013-05-20 01:42:00,52.0,51.0,30.19,SE,138,0.0,4.0,95,-99.99,,,-99.99,,2013-05-20 05:42:00,
2013-05-20 01:52:00,52.0,51.0,30.17,SE,138,0.0,0.0,95,-99.99,,,-99.99,,2013-05-20 05:52:00,
2013-05-20 02:01:00,52.0,51.0,30.17,SE,138,1.0,3.0,96,-99.99,,,-99.99,,2013-05-20 06:01:00,
2013-05-20 02:11:00,52.0,51.0,30.16,SE,138,0.0,0.0,96,-99.99,,,-99.99,,2013-05-20 06:11:00,
2013-05-20 02:21:00,52.0,51.0,30.16,SE,138,0.0,0.0,96,-99.99,,,-99.99,,2013-05-20 06:21:00,
2013-05-20 02:32:00,53.0,52.0,30.15,SE,138,0.0,1.0,96,-99.99,,,-99.99,,2013-05-20 06:32:00,
2013-05-20 02:42:00,53.0,52.0,30.15,SE,138,0.0,1.0,96,-99.99,,,-99.99,,2013-05-20 06:42:00,
2013-05-20 02:52:00,53.0,52.0,30.14,SE,138,0.0,0.0,96,-99.99,,,-99.99,,2013-05-20 06:52:00,
2013-05-20 03:02:00,53.0,52.0,30.14,SE,138,0.0,2.0,96,-99.99,,,-99.99,,2013-05-20 07:02:00,
2013-05-20 03:12:00,53.0,52.0,30.14,SE,138,0.0,2.0,96,-99.99,,,-99.99,,2013-05-20 07:12:00,
2013-05-20 03:21:00,54.0,53.0,30.13,SE,138,1.0,3.0,96,-99.99,,,-99.99,,2013-05-20 07:21:00,
2013-05-20 03:32:00,54.0,53.0,30.12,SE,138,3.0,4.0,96,-99.99,,,-99.99,,2013-05-20 07:32:00,
2013-05-20 03:42:00,54.0,53.0,30.12,SE,138,3.0,4.0,96,-99.99,,,-99.99,,2013-05-20 07:42:00,
2013-05-20 03:52:00,54.0,53.0,30.11,SE,138,0.0,3.0,96,-99.99,,,-99.99,,2013-05-20 07:52:00,
2013-05-20 04:01:00,55.0,54.0,30.11,SE,138,0.0,3.0,96,-99.99,,,-99.99,,2013-05-20 08:01:00,
2013-05-20 04:11:00,55.0,54.0,30.11,SE,138,0.0,3.0,96,-99.99,,,-99.99,,2013-05-20 08:11:00,
2013-05-20 04:21:00,55.0,54.0,30.09,SE,138,0.0,3.0,96,-99.99,,,-99.99,,2013-05-20 08:21:00,
2013-05-20 04:32:00,55.0,54.0,30.09,SE,138,3.0,4.0,96,-99.99,,,-99.99,,2013-05-20 08:32:00,
2013-05-20 04:42:00,55.0,54.0,30.09,SE,138,3.0,4.0,96,-99.99,,,-99.99,,2013-05-20 08:42:00,
2013-05-20 04:52:00,55.0,54.0,30.09,SE,138,0.0,2.0,96,-99.99,,,-99.99,,2013-05-20 08:52:00,
2013-05-20 05:02:00,55.0,54.0,30.08,SE,138,0.0,1.0,96,-99.99,,,-99.99,,2013-05-20 09:02:00,
2013-05-20 05:12:00,55.0,54.0,30.08,SE,138,0.0,1.0,96,-99.99,,,-99.99,,2013-05-20 09:12:00,
2013-05-20 05:21:00,55.0,54.0,30.08,SE,138,0.0,0.0,97,-99.99,,,-99.99,,2013-05-20 09:21:00,
2013-05-20 05:32:00,55.0,54.0,30.07,SE,138,0.0,3.0,97,-99.99,,,-99.99,,2013-05-20 09:32:00,
2013-05-20 05:43:00,55.0,54.0,30.07,SE,138,0.0,3.0,97,-99.99,,,-99.99,,2013-05-20 09:43:00,
2013-05-20 05:53:00,55.0,54.0,30.06,SE,138,0.0,4.0,97,-99.99,,,-99.99,,2013-05-20 09:53:00,
2013-05-20 06:03:00,55.0,54.0,30.06,SE,138,0.0,1.0,97,-99.99,,,-99.99,,2013-05-20 10:03:00,
2013-05-20 06:12:00,55.0,54.0,30.06,SE,138,0.0,1.0,97,-99.99,,,-99.99,,2013-05-20 10:12:00,
2013-05-20 06:22:00,56.0,55.0,30.06,SE,138,1.0,3.0,97,-99.99,,,-99.99,,2013-05-20 10:22:00,
2013-05-20 06:33:00,56.0,55.0,30.05,SE,138,3.0,4.0,97,-99.99,,,-99.99,,2013-05-20 10:33:00,
2013-05-20 06:42:00,56.0,55.0,30.05,SE,138,3.0,4.0,97,-99.99,,,-99.99,,2013-05-20 10:42:00,
2013-05-20 06:52:00,56.0,55.0,30.05,SE,138,0.0,2.0,97,-99.99,,,-99.99,,2013-05-20 10:52:00,
2013-05-20 07:02:00,56.0,55.0,30.05,SE,138,0.0,0.0,97,-99.99,,,-99.99,,2013-05-20 11:02:00,
2013-05-20 07:12:00,56.0,55.0,30.05,SE,138,0.0,0.0,97,-99.99,,,-99.99,,2013-05-20 11:12:00,
2013-05-20 07:21:00,56.0,55.0,30.05,SE,138,0.0,0.0,97,-99.99,,,-99.99,,2013-05-20 11:21:00,
2013-05-20 07:32:00,57.0,56.0,30.05,SE,138,1.0,4.0,97,-99.99,,,-99.99,,2013-05-20 11:32:00,
2013-05-20 07:42:00,57.0,56.0,30.05,SE,138,1.0,4.0,97,-99.99,,,-99.99,,2013-05-20 11:42:00,
2013-05-20 07:51:00,58.0,57.0,30.05,SE,138,1.0,3.0,97,-99.99,,,-99.99,,2013-05-20 11:51:00,
2013-05-20 08:01:00,58.0,57.0,30.05,SE,138,1.0,3.0,97,-99.99,,,-99.99,,2013-05-20 12:01:00,
2013-05-20 08:12:00,58.0,57.0,30.05,SE,138,1.0,3.0,97,-99.99,,,-99.99,,2013-05-20 12:12:00,
2013-05-20 08:21:00,58.0,57.0,30.05,WNW,291,1.0,4.0,97,-99.99,,,-99.99,,2013-05-20 12:21:00,
2013-05-20 08:32:00,59.0,58.0,30.04,South,173,3.0,7.0,97,-99.99,,,-99.99,,2013-05-20 12:32:00,
2013-05-20 08:41:00,59.0,58.0,30.04,South,173,3.0,7.0,97,-99.99,,,-99.99,,2013-05-20 12:41:00,
2013-05-20 08:52:00,59.0,58.0,30.03,SSW,201,3.0,8.0,97,-99.99,,,-99.99,,2013-05-20 12:52:00,
2013-05-20 09:01:00,60.0,59.0,30.04,SW,214,1.0,6.0,97,-99.99,,,-99.99,,2013-05-20 13:01:00,
2013-05-20 09:11:00,60.0,59.0,30.04,SW,214,1.0,6.0,97,-99.99,,,-99.99,,2013-05-20 13:11:00,
2013-05-20 09:22:00,61.0,60.0,30.03,South,187,1.0,4.0,96,-99.99,,,-99.99,,2013-05-20 13:22:00,
2013-05-20 09:32:00,61.0,60.0,30.04,WNW,290,2.0,6.0,95,-99.99,,,-99.99,,2013-05-20 13:32:00,
2013-05-20 09:41:00,62.0,60.0,30.02,South,173,4.0,7.0,92,-99.99,,,-99.99,,2013-05-20 13:41:00,
2013-05-20 09:52:00,62.0,60.0,30.02,South,173,4.0,7.0,92,-99.99,,,-99.99,,2013-05-20 13:52:00,
2013-05-20 10:01:00,63.0,60.0,30.02,WNW,286,1.0,9.0,91,-99.99,,,-99.99,,2013-05-20 14:01:00,
2013-05-20 10:11:00,63.0,60.0,30.02,WNW,286,1.0,9.0,91,-99.99,,,-99.99,,2013-05-20 14:11:00,
2013-05-20 10:22:00,64.0,60.0,30.02,South,171,0.0,7.0,88,-99.99,,,-99.99,,2013-05-20 14:22:00,
2013-05-20 10:32:00,65.0,61.0,30.02,WNW,298,1.0,5.0,86,-99.99,,,-99.99,,2013-05-20 14:32:00,
2013-05-20 10:42:00,65.0,61.0,30.02,WNW,298,1.0,5.0,86,-99.99,,,-99.99,,2013-05-20 14:42:00,
2013-05-20 10:52:00,65.0,60.0,30.02,NW,306,2.0,4.0,85,-99.99,,,-99.99,,2013-05-20 14:52:00,
2013-05-20 11:01:00,66.0,61.0,30.01,West,277,1.0,6.0,85,-99.99,,,-99.99,,2013-05-20 15:01:00,
2013-05-20 11:11:00,66.0,61.0,30.01,West,277,1.0,6.0,85,-99.99,,,-99.99,,2013-05-20 15:11:00,
2013-05-20 11:21:00,68.0,62.0,30.01,WNW,289,4.0,10.0,80,-99.99,,,-99.99,,2013-05-20 15:21:00,
2013-05-20 11:33:00,68.0,62.0,30.01,West,275,3.0,10.0,80,-99.99,,,-99.99,,2013-05-20 15:33:00,
2013-05-20 11:42:00,69.0,62.0,30.00,WSW,257,4.0,9.0,78,-99.99,,,-99.99,,2013-05-20 15:42:00,
2013-05-20 11:53:00,69.0,62.0,30.00,WSW,257,4.0,9.0,78,-99.99,,,-99.99,,2013-05-20 15:53:00,
2013-05-20 12:03:00,70.0,63.0,29.99,West,264,3.0,6.0,78,-99.99,,,-99.99,,2013-05-20 16:03:00,
2013-05-20 12:13:00,70.0,63.0,29.99,West,264,3.0,6.0,78,-99.99,,,-99.99,,2013-05-20 16:13:00,
2013-05-20 12:23:00,72.0,64.0,29.98,West,271,2.0,4.0,75,-99.99,,,-99.99,,2013-05-20 16:23:00,
2013-05-20 12:33:00,73.0,64.0,29.98,WNW,299,0.0,6.0,74,-99.99,,,-99.99,,2013-05-20 16:33:00,
2013-05-20 12:42:00,73.0,64.0,29.98,WNW,299,0.0,6.0,74,-99.99,,,-99.99,,2013-05-20 16:42:00,
2013-05-20 12:53:00,73.0,63.0,29.97,NW,306,0.0,6.0,71,-99.99,,,-99.99,,2013-05-20 16:53:00,
2013-05-20 13:02:00,73.0,64.0,29.96,WNW,296,0.0,4.0,74,-99.99,,,-99.99,,2013-05-20 17:02:00,
2013-05-20 13:12:00,74.0,64.0,29.96,WNW,290,3.0,10.0,72,-99.99,,,-99.99,,2013-05-20 17:12:00,
2013-05-20 13:22:00,74.0,64.0,29.96,WNW,290,3.0,10.0,72,-99.99,,,-99.99,,2013-05-20 17:22:00,
2013-05-20 13:33:00,75.0,65.0,29.96,NW,306,3.0,6.0,70,-99.99,,,-99.99,,2013-05-20 17:33:00,
2013-05-20 13:45:00,75.0,65.0,29.96,NW,306,3.0,6.0,70,-99.99,,,-99.99,,2013-05-20 17:45:00,
2013-05-20 13:53:00,77.0,66.0,29.94,NNW,327,1.0,3.0,68,-99.99,,,-99.99,,2013-05-20 17:53:00,
2013-05-20 14:02:00,78.0,65.0,29.94,WNW,300,1.0,7.0,64,-99.99,,,-99.99,,2013-05-20 18:02:00,
2013-05-20 14:12:00,78.0,66.0,29.94,WSW,244,1.0,5.0,66,-99.99,,,-99.99,,2013-05-20 18:12:00,
2013-05-20 14:23:00,78.0,66.0,29.94,WSW,244,1.0,5.0,66,-99.99,,,-99.99,,2013-05-20 18:23:00,
2013-05-20 14:32:00,78.0,65.0,29.94,NNW,338,2.0,10.0,65,-99.99,,,-99.99,,2013-05-20 18:32:00,
2013-05-20 14:42:00,78.0,65.0,29.94,NNW,338,2.0,10.0,65,-99.99,,,-99.99,,2013-05-20 18:42:00,
2013-05-20 14:55:00,79.0,65.0,29.94,West,261,3.0,7.0,62,-99.99,,,-99.99,,2013-05-20 18:55:00,
2013-05-20 15:04:00,78.0,65.0,29.94,WNW,288,0.0,8.0,64,-99.99,,,-99.99,,2013-05-20 19:04:00,
2013-05-20 15:11:00,77.0,64.0,29.94,NW,326,3.0,11.0,65,-99.99,,,-99.99,,2013-05-20 19:11:00,
2013-05-20 15:21:00,77.0,64.0,29.94,NW,326,3.0,11.0,65,-99.99,,,-99.99,,2013-05-20 19:21:00,
2013-05-20 15:32:00,77.0,64.0,29.94,NW,310,2.0,7.0,65,-99.99,,,-99.99,,2013-05-20 19:32:00,
2013-05-20 15:42:00,77.0,65.0,29.93,WNW,284,2.0,5.0,66,-99.99,,,-99.99,,2013-05-20 19:42:00,
2013-05-20 15:52:00,77.0,65.0,29.93,WNW,284,2.0,5.0,66,-99.99,,,-99.99,,2013-05-20 19:52:00,
2013-05-20 16:01:00,77.0,64.0,29.93,NW,317,1.0,6.0,65,-99.99,,,-99.99,,2013-05-20 20:01:00,
2013-05-20 16:12:00,77.0,64.0,29.92,WNW,291,0.0,6.0,64,-99.99,,,-99.99,,2013-05-20 20:12:00,
2013-05-20 16:21:00,77.0,64.0,29.92,WNW,291,0.0,6.0,64,-99.99,,,-99.99,,2013-05-20 20:21:00,
2013-05-20 16:32:00,77.0,64.0,29.92,WNW,300,1.0,5.0,64,-99.99,,,-99.99,,2013-05-20 20:32:00,
2013-05-20 16:42:00,78.0,65.0,29.91,WNW,301,0.0,6.0,65,-99.99,,,-99.99,,2013-05-20 20:42:00,
2013-05-20 16:52:00,78.0,65.0,29.91,WNW,301,0.0,6.0,65,-99.99,,,-99.99,,2013-05-20 20:52:00,
2013-05-20 17:01:00,79.0,65.0,29.91,WNW,302,1.0,4.0,63,-99.99,,,-99.99,,2013-05-20 21:01:00,
2013-05-20 17:11:00,78.0,64.0,29.92,NW,320,0.0,4.0,63,-99.99,,,-99.99,,2013-05-20 21:11:00,
2013-05-20 17:21:00,78.0,64.0,29.92,NW,320,0.0,4.0,63,-99.99,,,-99.99,,2013-05-20 21:21:00,
2013-05-20 17:33:00,78.0,64.0,29.92,NW,308,0.0,6.0,63,-99.99,,,-99.99,,2013-05-20 21:33:00,
2013-05-20 17:43:00,78.0,65.0,29.93,NNW,331,2.0,5.0,64,-99.99,,,-99.99,,2013-05-20 21:43:00,
2013-05-20 17:53:00,78.0,65.0,29.93,NNW,331,2.0,5.0,64,-99.99,,,-99.99,,2013-05-20 21:53:00,
2013-05-20 18:02:00,78.0,65.0,29.93,NW,317,1.0,7.0,64,-99.99,,,-99.99,,2013-05-20 22:02:00,
2013-05-20 18:12:00,77.0,64.0,29.93,NW,323,0.0,6.0,65,-99.99,,,-99.99,,2013-05-20 22:12:00,
2013-05-20 18:23:00,77.0,64.0,29.93,NW,323,0.0,6.0,65,-99.99,,,-99.99,,2013-05-20 22:23:00,
2013-05-20 18:33:00,77.0,65.0,29.94,WNW,294,2.0,9.0,66,-99.99,,,-99.99,,2013-05-20 22:33:00,
2013-05-20 18:42:00,77.0,65.0,29.94,WNW,294,2.0,9.0,66,-99.99,,,-99.99,,2013-05-20 22:42:00,
2013-05-20 18:52:00,76.0,64.0,29.93,WNW,298,0.0,6.0,67,-99.99,,,-99.99,,2013-05-20 22:52:00,
2013-05-20 19:03:00,75.0,64.0,29.94,NNW,329,0.0,7.0,68,-99.99,,,-99.99,,2013-05-20 23:03:00,
2013-05-20 19:12:00,75.0,64.0,29.94,NNW,329,0.0,2.0,68,-99.99,,,-99.99,,2013-05-20 23:12:00,
2013-05-20 19:22:00,75.0,64.0,29.94,NNW,329,0.0,2.0,68,-99.99,,,-99.99,,2013-05-20 23:22:00,
2013-05-20 19:32:00,75.0,64.0,29.94,NNW,331,0.0,2.0,69,-99.99,,,-99.99,,2013-05-20 23:32:00,
2013-05-20 19:42:00,75.0,64.0,29.94,NNW,331,0.0,2.0,69,-99.99,,,-99.99,,2013-05-20 23:42:00,
2013-05-20 19:53:00,74.0,64.0,29.94,NNW,331,0.0,0.0,71,-99.99,,,-99.99,,2013-05-20 23:53:00,
2013-05-20 20:01:00,73.0,63.0,29.95,NNW,331,0.0,0.0,72,-99.99,,,-99.99,,2013-05-21 00:01:00,
2013-05-20 20:11:00,73.0,63.0,29.95,NNW,331,0.0,0.0,72,-99.99,,,-99.99,,2013-05-21 00:11:00,
2013-05-20 20:21:00,73.0,64.0,29.95,NNW,331,0.0,0.0,74,-99.99,,,-99.99,,2013-05-21 00:21:00,
2013-05-20 20:32:00,72.0,64.0,29.95,NNW,331,0.0,0.0,75,-99.99,,,-99.99,,2013-05-21 00:32:00,
2013-05-20 20:42:00,71.0,63.0,29.96,NNW,331,0.0,0.0,76,-99.99,,,-99.99,,2013-05-21 00:42:00,
2013-05-20 20:52:00,71.0,63.0,29.96,NNW,331,0.0,0.0,76,-99.99,,,-99.99,,2013-05-21 00:52:00,
2013-05-20 21:01:00,71.0,63.0,29.96,NNW,331,0.0,0.0,77,-99.99,,,-99.99,,2013-05-21 01:01:00,
2013-05-20 21:11:00,71.0,63.0,29.96,NNW,331,0.0,0.0,77,-99.99,,,-99.99,,2013-05-21 01:11:00,
2013-05-20 21:22:00,70.0,63.0,29.97,NNW,331,0.0,2.0,78,-99.99,,,-99.99,,2013-05-21 01:22:00,
2013-05-20 21:32:00,70.0,64.0,29.96,NNW,331,0.0,0.0,80,-99.99,,,-99.99,,2013-05-21 01:32:00,
2013-05-20 21:42:00,69.0,63.0,29.96,NNW,331,0.0,0.0,81,-99.99,,,-99.99,,2013-05-21 01:42:00,
2013-05-20 21:53:00,69.0,63.0,29.96,NNW,331,0.0,0.0,81,-99.99,,,-99.99,,2013-05-21 01:53:00,
2013-05-20 22:02:00,68.0,62.0,29.96,NNW,331,0.0,0.0,82,-99.99,,,-99.99,,2013-05-21 02:02:00,
2013-05-20 22:11:00,66.0,61.0,29.96,NNW,331,0.0,0.0,85,-99.99,,,-99.99,,2013-05-21 02:11:00,
2013-05-20 22:21:00,66.0,61.0,29.96,NNW,331,0.0,0.0,85,-99.99,,,-99.99,,2013-05-21 02:21:00,
2013-05-20 22:32:00,66.0,61.0,29.96,NNW,331,0.0,0.0,85,-99.99,,,-99.99,,2013-05-21 02:32:00,
2013-05-20 22:42:00,65.0,61.0,29.97,NNW,331,0.0,0.0,87,-99.99,,,-99.99,,2013-05-21 02:42:00,
2013-05-20 22:52:00,65.0,61.0,29.97,NNW,331,0.0,0.0,87,-99.99,,,-99.99,,2013-05-21 02:52:00,
2013-05-20 23:02:00,64.0,60.0,29.97,NNW,331,0.0,0.0,88,-99.99,,,-99.99,,2013-05-21 03:02:00,
2013-05-20 23:11:00,63.0,60.0,29.97,NNW,331,0.0,0.0,89,-99.99,,,-99.99,,2013-05-21 03:11:00,
2013-05-20 23:21:00,63.0,60.0,29.97,NNW,331,0.0,0.0,89,-99.99,,,-99.99,,2013-05-21 03:21:00,
2013-05-20 23:33:00,63.0,60.0,29.97,NNW,331,0.0,0.0,90,-99.99,,,-99.99,,2013-05-21 03:33:00,
2013-05-20 23:43:00,62.0,59.0,29.98,NNW,331,0.0,0.0,91,-99.99,,,-99.99,,2013-05-21 03:43:00,
2013-05-20 23:53:00,62.0,59.0,29.98,NNW,331,0.0,0.0,91,-99.99,,,-99.99,,2013-05-21 03:53:00,